User: anonymous   Login
Location: Theydon Bois
(51.6750°N, 0.1050°E)
Time: 22:12:51
(UTC+01:00)
Language:

Cosmos 2322 Rocket - Orbit

View from above orbital plane
View from above orbital plane
View from above satellite
View from above satellite

Ground track
Ground track

The orbit data is extracted from the following two-line orbital elements,

1 23705U 95058B   17295.05203007  .00000197  00000-0  12586-3 0  9997
2 23705  71.0202 122.8653 0010371 107.3953 252.8304 14.15106628135139
Epoch (UTC): 22 October 2017 01:14:55
Eccentricity: 0.0010371
inclination: 71.0202°
perigee height: 834 km
apogee height: 849 km
right ascension of ascending node: 122.8653°
argument of perigee: 107.3953°
revolutions per day: 14.15106628
mean anomaly at epoch: 252.8304°
orbit number at epoch: 13513

The dashed part of the orbit path shows where the satellite is in the earth's shadow,  

DLR